Regional Weather Roundup
Issued by NWS Binghamton, NY

Home | Current Version | Previous Version | Text Only | Print | Product List | Glossary On
Versions: 1 2 3 4 5 6 7 8 9 10 11 12 13 14 15 16 17 18 19 20 21 22 23 24 25 26 27
000
ASUS41 KBGM 182010
RWRBGM

REGIONAL WEATHER ROUNDUP
NATIONAL WEATHER SERVICE BINGHAMTON NY
300 PM EST MON DEC 18 2017

Note: "fair" indicates few or no clouds below 12,000 feet with no
significant weather and/or obstructions to visibility.

* = Station(s) that does not report precipitation, such as rain,
snow, etc, also no thunder or fog.

NYZ009-015>018-022>025-036-037-044>046-055>057-062-182100
...Central New York...

CITY           SKY/WX    TMP DP  RH WIND       PRES   REMARKS
Binghamton     CLOUDY    36  30  79 SW9       29.87F WCI  29
Cortland       CLOUDY    37  32  81 SW7       29.87F WCI  32
Dansville      CLOUDY    40  32  73 SE7       29.87F
Elmira         CLOUDY    40  34  79 SW6       29.89F
Seneca Falls   CLOUDY    39  34  81 S9        29.87F WCI  33
Ithaca         CLOUDY    39  34  81 SW6       29.88F WCI  35
Hornell        CLOUDY    39  34  81 S5        29.90S
Monticello     CLOUDY    38  31  76 W3        29.92F
Oneonta        PTSUNNY   34 N/A N/A SW6       29.86S FOG     WCI  29
Penn Yan       CLOUDY    42  32  67 SW15      29.85F
Rome           MIX PCPN  32  31  96 SE5       29.90S FOG     WCI  27
Sidney         CLOUDY    37  34  87 CALM      29.90S
Syracuse       LGT RAIN  39  35  86 SW9       29.86F WCI  33
$$

PAZ038>040-043-044-047-048-072-182100
...Northeast Pennsylvania...

CITY           SKY/WX    TMP DP  RH WIND       PRES   REMARKS
Hazleton       CLOUDY    43  32  65 SW3       29.95S
Scranton       CLOUDY    42  32  67 SW10      29.93F
$$
&&
KEY
WCI = Wind Chill Index
VSB = Visibility
HX  = Heat Index
$$




USA.gov is the U.S. government's official web portal to all federal, state and local government web resources and services.